FW5156 Weather Reports


Display with metric or nautical units.
time (UTC)temp
F
wind
direction
speed
MPH
gust
MPH
rain 1hr
in
rain 24hr
in
rain mn
in
humidity
%
barometer
mb
20260509152517 61 0.0 5.0 0.00 0.72 0.36 84 1009.2
20260509151517 61 0.0 1.0 0.00 0.72 0.36 84 1009.0
20260509150517 61 0.0 4.0 0.00 0.72 0.36 85 1009.1
20260509145517 60 293 1.0 11.0 0.00 0.72 0.36 87 1009.0
20260509144517 59 0.0 8.0 0.00 0.72 0.36 87 1009.1
20260509143517 59 0.0 0.0 0.00 0.72 0.36 90 1008.9
20260509142517 59 293 3.0 12.0 0.00 0.72 0.36 91 1008.9
20260509141517 58 0.0 0.0 0.00 0.72 0.36 93 1008.8
20260509140516 57 0.0 4.0 0.00 0.72 0.36 96 1008.8
20260509135537 57 0.0 2.0 0.00 0.72 0.36 97 1008.8
20260509134517 56 0.0 0.0 0.00 0.72 0.36 97 1008.7
20260509133517 55 0.0 5.0 0.00 0.72 0.36 97 1008.7
20260509132537 55 0.0 0.0 0.00 0.72 0.36 97 1008.8
20260509131537 54 0.0 4.0 0.00 0.72 0.36 97 1008.6
20260509130517 54 0.0 0.0 0.00 0.72 0.36 97 1008.6
20260509125517 54 0.0 0.0 0.00 0.72 0.36 97 1008.6
20260509124517 54 0.0 0.0 0.00 0.72 0.36 97 1008.5
20260509123517 54 0.0 0.0 0.00 0.72 0.36 97 1008.4
20260509122517 53 0.0 0.0 0.00 0.72 0.36 97 1008.3
20260509121517 53 0.0 0.0 0.00 0.72 0.36 97 1008.2
20260509120517 53 0.0 0.0 0.00 0.72 0.36 97 1008.4
20260509115517 52 0.0 0.0 0.00 0.72 0.36 97 1008.2
20260509114517 52 0.0 0.0 0.00 0.72 0.36 96 1008.1
20260509113517 52 0.0 0.0 0.00 0.72 0.36 96 1008.2
20260509112517 52 0.0 0.0 0.00 0.72 0.36 96 1008.0
20260509111517 52 0.0 0.0 0.00 0.72 0.36 96 1008.0
20260509110517 52 0.0 0.0 0.00 0.72 0.36 96 1007.8
20260509105517 52 0.0 0.0 0.00 0.72 0.36 96 1007.7
20260509104517 52 0.0 0.0 0.00 0.72 0.36 96 1007.6
20260509103517 52 0.0 0.0 0.00 0.72 0.36 96 1007.6
20260509102517 53 0.0 0.0 0.00 0.72 0.36 96 1007.7
20260509101537 53 0.0 0.0 0.00 0.72 0.36 96 1007.6
20260509100517 53 0.0 0.0 0.00 0.72 0.36 96 1007.7
20260509095517 53 0.0 0.0 0.00 0.72 0.36 96 1007.8
20260509094537 53 0.0 0.0 0.01 0.72 0.36 96 1007.8
20260509093517 53 0.0 0.0 0.02 0.72 0.36 96 1007.7
20260509092517 53 0.0 0.0 0.03 0.72 0.36 96 1007.8
20260509091517 53 0.0 0.0 0.05 0.72 0.36 96 1008.0
20260509090517 54 0.0 0.0 0.05 0.72 0.36 96 1008.0
20260509085517 54 0.0 0.0 0.06 0.72 0.36 96 1007.9
20260509084537 54 0.0 0.0 0.05 0.71 0.35 96 1008.4
20260509083517 54 0.0 2.0 0.06 0.70 0.34 96 1008.6
20260509082517 54 0.0 0.0 0.05 0.69 0.33 96 1008.7
20260509081517 54 0.0 0.0 0.04 0.67 0.31 96 1008.5
20260509080517 54 0.0 0.0 0.05 0.67 0.31 96 1008.5
20260509075517 54 0.0 0.0 0.04 0.66 0.30 96 1008.5
20260509074517 54 0.0 0.0 0.04 0.66 0.30 96 1008.6
20260509073517 54 0.0 5.0 0.02 0.64 0.28 96 1008.7
20260509072517 54 0.0 2.0 0.02 0.64 0.28 96 1008.6
20260509071517 54 0.0 1.0 0.01 0.63 0.27 96 1008.6
20260509070517 54 0.0 0.0 0.00 0.62 0.26 96 1008.9
20260509065537 54 0.0 0.0 0.01 0.62 0.26 96 1009.3
20260509064517 54 0.0 2.0 0.03 0.62 0.26 96 1009.1
20260509063537 54 0.0 1.0 0.05 0.62 0.26 96 1009.4
20260509062517 54 0.0 3.0 0.07 0.62 0.26 96 1009.6
20260509061517 54 0.0 0.0 0.10 0.62 0.26 96 1009.5
20260509060517 54 0.0 0.0 0.12 0.62 0.26 96 1009.3
20260509055557 54 0.0 0.0 0.12 0.61 0.25 96 1009.7
20260509054517 55 0.0 2.0 0.12 0.59 0.23 96 1010.0
20260509053517 55 0.0 0.0 0.13 0.57 0.21 96 1010.0
20260509052517 55 0.0 2.0 0.14 0.55 0.19 96 1010.4
20260509051517 54 0.0 0.0 0.13 0.52 0.16 96 1010.4
20260509050517 54 225 1.0 3.0 0.13 0.50 0.14 96 1010.5
20260509045517 54 0.0 0.0 0.14 0.49 0.13 96 1010.3
20260509044517 54 0.0 0.0 0.12 0.47 0.11 96 1010.4
20260509043517 54 0.0 0.0 0.11 0.44 0.08 96 1010.3
20260509042517 54 0.0 2.0 0.12 0.41 0.05 96 1010.3
20260509041517 54 0.0 4.0 0.14 0.39 0.03 95 1010.2
20260509040517 54 0.0 1.0 0.14 0.37 0.01 95 1010.1
20260509035517 54 0.0 2.0 0.12 0.35 0.35 95 1010.1
20260509034517 55 0.0 0.0 0.12 0.35 0.35 95 1010.2
20260509033537 55 0.0 2.0 0.10 0.33 0.33 95 1010.7
20260509032517 55 0.0 2.0 0.07 0.29 0.29 95 1010.7
20260509031517 55 0.0 4.0 0.04 0.25 0.25 95 1010.5
20260509030517 55 0.0 0.0 0.02 0.23 0.23 95 1010.3
20260509025517 55 0.0 0.0 0.05 0.23 0.23 95 1010.4
20260509024517 55 0.0 0.0 0.07 0.23 0.23 95 1010.4
20260509023517 55 0.0 0.0 0.10 0.23 0.23 95 1010.5
20260509022517 55 0.0 0.0 0.12 0.22 0.22 95 1010.6
20260509021517 55 0.0 2.0 0.12 0.21 0.21 95 1010.3
20260509020517 55 0.0 0.0 0.12 0.21 0.21 95 1010.5
20260509015537 55 45 1.0 2.0 0.09 0.18 0.18 95 1010.6
20260509014517 55 0.0 1.0 0.08 0.16 0.16 94 1010.5
20260509013517 55 0.0 0.0 0.06 0.13 0.13 95 1010.4
20260509012517 55 0.0 0.0 0.03 0.10 0.10 94 1010.3
20260509011517 55 0.0 0.0 0.02 0.09 0.09 94 1010.1
20260509010517 55 0.0 0.0 0.02 0.09 0.09 94 1010.2
20260509005517 55 0.0 2.0 0.02 0.09 0.09 94 1010.2
20260509004517 55 0.0 2.0 0.02 0.08 0.08 94 1010.2
20260509003517 55 0.0 0.0 0.02 0.07 0.07 94 1010.1
20260509002537 55 0.0 0.0 0.03 0.07 0.07 93 1009.8
20260509001517 55 0.0 0.0 0.03 0.07 0.07 93 1009.8
20260509000517 55 0.0 0.0 0.03 0.07 0.07 93 1009.7
20260508235517 56 0.0 0.0 0.04 0.07 0.07 93 1010.0
20260508234517 56 0.0 0.0 0.04 0.06 0.06 93 1010.0
20260508233517 56 0.0 0.0 0.03 0.05 0.05 92 1010.0
20260508232517 56 0.0 0.0 0.02 0.04 0.04 92 1010.0
20260508231537 56 0.0 0.0 0.02 0.04 0.04 92 1010.0
20260508230517 56 0.0 0.0 0.03 0.04 0.04 91 1010.0
20260508225517 57 0.0 0.0 0.02 0.03 0.03 91 1009.8
20260508224517 57 0.0 0.0 0.01 0.02 0.02 90 1010.1
20260508223517 57 0.0 0.0 0.02 0.02 0.02 89 1010.1
20260508222517 57 0.0 0.0 0.02 0.02 0.02 88 1009.8
20260508221517 57 0.0 0.0 0.02 0.02 0.02 87 1010.0
20260508220517 58 0.0 0.0 0.01 0.01 0.01 85 1009.9
20260508215517 59 0.0 5.0 0.01 0.01 0.01 82 1010.1
20260508214517 60 248 1.0 10.0 0.01 0.01 0.01 79 1010.0
20260508213517 61 0.0 0.0 0.00 0.00 0.00 76 1009.7
20260508212517 61 0.0 0.0 0.00 0.00 0.00 73 1009.7
20260508211517 61 0.0 1.0 0.00 0.00 0.00 72 1009.8
20260508210537 61 0.0 2.0 0.00 0.00 0.00 71 1009.7
20260508205517 62 0.0 4.0 0.00 0.00 0.00 67 1009.8
20260508204517 63 0.0 3.0 0.00 0.00 0.00 65 1009.9
20260508203517 64 0.0 4.0 0.00 0.00 0.00 60 1010.0
20260508202517 64 293 1.0 8.0 0.00 0.00 0.00 59 1010.1
20260508201517 65 248 2.0 6.0 0.00 0.00 0.00 57 1010.1
20260508200517 65 270 1.0 6.0 0.00 0.00 0.00 56 1010.2
20260508195517 65 203 2.0 6.0 0.00 0.00 0.00 58 1010.3
20260508194517 65 293 2.0 7.0 0.00 0.00 0.00 57 1010.5
20260508193517 65 248 1.0 7.0 0.00 0.00 0.00 56 1010.7
20260508192537 65 225 2.0 8.0 0.00 0.00 0.00 55 1010.8
20260508191517 65 225 2.0 10.0 0.00 0.00 0.00 56 1010.7
20260508190517 65 225 2.0 9.0 0.00 0.00 0.00 54 1011.0
20260508185537 65 248 2.0 7.0 0.00 0.00 0.00 56 1011.1
20260508184517 65 225 3.0 13.0 0.00 0.00 0.00 55 1011.3
20260508183517 65 225 3.0 9.0 0.00 0.00 0.00 58 1011.5
20260508182517 65 270 1.0 5.0 0.00 0.00 0.00 57 1011.6
20260508181517 65 248 2.0 7.0 0.00 0.00 0.00 56 1011.5
20260508180517 65 203 3.0 10.0 0.00 0.00 0.00 56 1011.7
20260508175537 66 225 3.0 9.0 0.00 0.00 0.00 55 1011.9
20260508174517 65 225 3.0 8.0 0.00 0.00 0.00 58 1012.2
20260508173537 64 270 3.0 12.0 0.00 0.00 0.00 56 1012.3
20260508172517 64 225 4.0 12.0 0.00 0.00 0.00 55 1012.3
20260508171517 64 248 2.0 9.0 0.00 0.00 0.00 57 1012.4
20260508170517 64 248 4.0 11.0 0.00 0.00 0.00 55 1012.6
20260508165517 65 248 6.0 14.0 0.00 0.00 0.00 53 1012.6
20260508164517 64 315 2.0 9.0 0.00 0.00 0.00 56 1012.9
20260508163537 64 270 3.0 10.0 0.00 0.00 0.00 59 1013.2
20260508162517 64 248 3.0 9.0 0.00 0.00 0.00 57 1013.4
20260508161517 64 270 1.0 6.0 0.00 0.00 0.00 57 1013.4
20260508160517 63 225 3.0 11.0 0.00 0.00 0.00 60 1013.4
20260508155517 61 225 2.0 9.0 0.00 0.00 0.00 61 1013.6
20260508154517 61 225 3.0 9.0 0.00 0.00 0.00 61 1013.8
20260508153517 61 225 2.0 8.0 0.00 0.00 0.00 60 1013.8